SCP
0 0 0 0 0 0 -0 0 0 -0 0 0 0 0 -0 0 0 0 -0 -0 0 0 0 0 1 1 0 0 0 0 0 0 0 0 0 0 0 0 0 0 0 0 0 0 0 0 0 0 0
0 0 0 0 0 0 0 0 0 0 -0 0 0 0 0 0 0 0 0 -0 0 0 0 0 1 1 1 0 0 0 0 0 0 0 0 0 0 0 0 0 0 0 0 0 0 0 0 0 0
0 0 0 0 0 0 0 0 0 0 0 0 0 0 0 0 0 0 0 0 0 0 0 0 1 1 1 1 0 0 0 0 0 0 0 0 0 0 0 0 0 0 0 0 0 0 0 0 0
0 0 0 0 0 0 0 -0 0 -0 0 0 0 0 0 0 0 0 0 0 0 0 0 1 1 1 1 1 1 0 0 0 0 0 0 0 0 0 0 0 0 0 0 0 0 0 0 0 0
0 0 0 0 0 0 0 -0 0 0 0 -0 0 0 0 0 0 0 0 0 0 0 0 0 1 1 1 1 1 0 0 0 0 0 0 0 0 0 0 0 0 0 0 0 0 0 0 0 0
0 0 0 0 -0 0 0 -0 0 0 0 -0 0 0 0 0 0 0 0 0 0 0 0 0 1 1 1 1 1 1 0 0 0 0 0 0 0 0 0 0 0 0 0 0 0 0 0 0 0
0 0 0 0 0 0 -0 0 0 -0 0 -0 -0 0 0 -0 -0 0 0 0 0 0 0 0 1 1 1 1 1 1 1 0 0 0 1 0 0 0 0 0 0 0 0 0 0 0 0 0 0
0 0 0 0 0 0 0 0 0 0 0 0 0 0 0 -0 -0 0 0 0 0 0 0 0 0 1 1 1 1 1 1 1 0 1 1 1 1 0 0 0 0 0 0 0 0 0 0 0 0
0 0 0 0 0 0 0 0 0 0 0 0 0 0 0 -0 0 0 0 0 0 0 1 1 1 0 1 1 1 1 1 1 1 1 1 1 1 1 0 0 0 0 0 0 0 0 0 0 0
0 0 0 0 0 0 0 0 0 -0 -0 -0 0 0 0 0 -0 0 0 0 0 0 1 1 1 1 1 1 1 1 1 1 1 1 1 1 1 0 0 0 0 0 0 0 0 0 0 0 0
0 0 0 0 0 0 0 0 0 0 0 0 0 0 0 0 0 0 0 0 0 0 1 1 1 1 1 1 1 2 1 1 1 1 1 1 1 0 0 0 0 1 1 1 1 0 0 0 0
0 0 0 0 0 0 0 0 0 0 0 0 0 0 0 0 0 0 0 0 0 0 0 1 1 1 1 1 1 1 1 1 1 1 1 1 1 0 0 0 0 0 0 0 0 0 0 0 0
0 0 0 0 0 0 0 0 0 0 0 0 0 0 0 0 0 0 0 0 0 0 0 1 1 1 1 1 1 1 1 1 1 1 1 1 1 0 0 0 0 0 0 0 0 0 0 0 0
0 0 0 0 0 0 0 0 0 0 0 0 0 0 0 0 0 0 0 0 0 0 0 0 1 0 1 0 1 2 2 1 1 1 1 0 1 0 0 0 0 0 0 0 0 0 0 0 0
0 0 0 0 0 0 0 0 0 0 0 0 0 0 0 0 0 0 0 0 0 0 0 0 0 1 1 0 1 2 2 1 1 1 0 0 0 0 0 0 0 0 0 0 0 0 0 0 0
0 0 0 0 0 0 0 0 0 0 0 0 0 0 0 0 0 0 0 0 0 0 0 0 0 1 1 1 1 2 3 2 1 1 1 0 0 0 0 0 0 0 0 0 0 0 0 0 0
0 0 0 0 0 0 0 0 0 0 0 0 0 0 0 0 0 0 0 0 0 0 0 0 0 1 1 1 1 2 3 2 1 1 1 0 1 1 1 1 0 0 0 0 0 0 0 0 0
0 0 0 0 0 0 0 0 0 0 0 0 0 0 0 0 0 0 0 0 0 0 0 0 1 1 1 2 3 3 2 1 0 1 1 1 1 1 1 0 0 0 0 0 0 0 0 0 0
0 0 0 0 0 0 0 0 0 0 0 0 0 0 0 0 0 0 0 0 0 0 0 0 1 1 2 3 4 3 2 1 0 0 1 1 1 0 0 0 0 0 0 0 0 0 0 0 0
0 0 0 0 0 0 0 0 0 0 0 0 0 0 0 0 0 0 0 0 0 0 0 0 1 1 2 3 3 3 1 0 0 0 0 0 0 0 0 0 0 0 0 0 0 0 0 0 0
0 0 0 0 0 0 0 0 0 0 0 0 0 0 0 -0 0 0 0 0 0 0 1 1 2 2 2 2 2 1 0 0 0 0 0 0 0 0 0 0 0 0 0 0 0 0 0 0 0
0 0 0 0 0 0 0 -0 0 -0 -0 -0 0 0 -0 -0 -0 -0 0 0 0 0 1 2 2 1 1 1 1 1 0 0 0 0 0 0 0 0 0 0 0 0 0 0 0 0 0 0 0
0 0 0 0 0 0 0 0 0 0 -0 -0 -0 -0 0 -0 0 0 0 0 0 1 1 1 1 1 1 1 0 0 0 0 0 0 0 0 0 0 0 0 0 0 0 0 0 0 0 0 0
0 0 0 0 0 0 0 0 -0 -0 0 0 0 0 -0 -0 -0 0 0 0 0 0 1 1 1 0 0 0 0 0 0 0 0 0 0 0 0 0 0 0 0 0 0 0 0 0 0 0 0
0 0 0 0 0 0 0 0 0 0 0 0 0 0 -0 0 -0 0 0 0 0 0 1 0 0 0 0 0 0 0 0 0 0 0 0 0 0 0 0 0 0 0 0 0 0 0 0 0 0
0 0 0 0 0 0 0 0 -0 0 -0 -0 0 0 0 -0 0 0 0 0 0 0 0 0 0 0 0 0 0 0 0 0 0 0 0 0 0 0 0 0 0 0 0 0 0 0 0 0 0
0 0 0 0 0 0 0 -0 -0 -0 0 -0 -0 0 -0 0 0 0 0 -0 -0 0 0 0 0 0 0 0 0 0 0 0 0 0 0 0 0 0 0 0 0 0 0 0 0 0 0 -0 -0
0 0 0 0 0 0 0 0 -0 -0 0 0 0 -0 0 0 -0 -0 -0 -0 -0 -0 0 0 0 0 0 0 0 0 0 0 0 0 0 0 0 0 0 0 0 0 0 0 0 0 0 -0 0
0 0 0 0 0 0 0 -0 0 -0 -0 0 0 -0 -0 -0 -0 -0 -0 -0 -0 0 -0 0 0 0 0 0 0 0 0 0 0 0 0 0 0 -0 -0 0 0 0 0 0 0 0 0 0 -0
0 0 0 0 0 0 0 -0 0 0 0 0 0 -0 -0 -0 -0 -0 -0 -0 -0 -0 -0 0 0 0 0 0 0 0 0 0 0 0 0 0 -0 0 -0 -0 -0 -0 0 0 0 0 0 0 0
Wind_Speed_500mb
5 6 11 6 4 6 5 11 8 12 12 25 32 15 14 6 11 8 42 42 40 39 40 38 39 35 28 25 24 23 21 18 15 12 9 7 6 5 4 3 2 3 6 6 6 6 6 9 13
10 12 8 2 6 3 9 9 17 6 5 31 26 15 18 4 28 29 46 43 32 30 37 40 39 34 31 28 26 25 24 21 17 12 9 5 2 4 5 5 4 3 5 7 8 9 10 12 15
15 16 1 5 7 10 8 7 5 7 18 22 21 28 5 15 28 46 30 35 36 21 32 34 37 35 35 33 31 30 29 27 22 17 11 6 1 4 7 9 7 6 8 10 13 14 14 15 13
19 8 6 3 16 13 8 21 10 8 14 11 14 10 7 23 40 35 35 33 31 21 22 28 34 39 40 39 38 36 35 32 29 23 18 13 7 5 7 10 9 10 11 11 13 15 18 22 21
19 6 3 7 12 12 20 28 41 10 9 13 39 26 12 39 36 38 37 36 26 21 22 25 37 42 44 44 44 43 42 39 35 31 26 20 15 12 9 11 12 13 14 14 14 19 25 28 29
7 5 2 10 16 16 14 28 49 13 17 23 11 10 13 38 29 17 25 27 28 22 23 31 36 47 48 47 49 49 49 45 41 38 33 28 23 19 14 13 16 18 16 16 19 23 25 30 33
10 5 8 7 10 14 6 27 13 17 24 5 26 15 25 39 15 15 13 16 23 31 35 40 43 45 56 51 52 55 53 50 46 45 40 35 31 27 22 17 19 20 16 14 16 20 23 27 31
11 6 5 8 7 16 7 37 29 23 20 19 20 11 21 42 21 19 18 24 29 35 42 51 53 55 58 61 58 59 59 57 54 52 48 43 39 34 29 23 23 22 17 14 12 13 19 24 27
28 3 11 13 12 18 14 21 50 27 26 45 7 8 28 21 17 35 32 38 42 48 45 53 56 63 62 67 64 65 65 63 61 59 56 52 49 42 35 29 27 23 19 12 11 15 17 17 20
17 13 18 17 14 13 28 6 35 53 40 33 46 8 6 27 13 29 41 36 34 28 32 46 57 65 65 72 71 70 72 74 72 71 66 64 56 47 39 33 30 24 17 18 17 14 14 12 14
15 28 24 32 33 37 39 41 37 40 29 45 35 43 48 33 39 47 41 44 42 41 36 39 42 60 67 73 78 75 76 80 80 79 74 70 60 53 45 38 34 27 20 24 26 22 18 16 18
21 39 42 47 53 47 35 54 45 47 53 52 55 61 61 57 54 55 59 55 53 45 49 49 45 43 56 71 78 81 80 75 79 83 81 74 67 59 48 42 39 31 26 26 26 26 22 21 22
42 34 43 48 63 65 62 54 50 67 73 73 75 77 68 55 47 45 53 54 56 51 49 55 58 54 46 61 71 81 82 73 71 76 79 75 70 61 49 44 39 34 33 33 30 30 26 28 29
12 12 39 48 60 62 43 54 61 68 77 79 71 67 72 73 70 76 73 66 59 65 58 61 58 51 41 46 54 62 80 76 67 62 65 65 60 57 52 41 35 38 40 35 32 35 36 35 33
43 21 31 46 34 29 56 54 55 74 68 74 73 76 74 79 85 92 92 78 73 59 59 66 57 43 40 43 48 64 73 80 71 59 52 49 41 41 41 35 37 41 40 40 38 40 43 43 43
4 8 37 40 38 27 21 64 47 51 47 61 67 76 88 94 103 99 92 79 75 75 67 45 54 42 44 48 52 55 70 78 72 60 50 45 40 38 35 35 36 35 44 46 42 43 42 44 51
13 33 41 49 22 9 26 84 25 53 62 51 58 71 78 85 92 95 89 85 85 66 47 53 50 46 44 48 54 57 63 78 68 55 46 43 41 40 33 37 29 32 44 46 43 43 44 44 46
24 43 36 34 14 29 37 67 43 61 68 72 80 88 85 86 91 100 91 82 74 57 57 64 55 36 39 51 56 62 68 66 57 49 44 43 40 41 32 33 31 34 36 38 40 43 45 45 40
21 23 30 8 20 28 41 44 40 43 56 44 58 63 78 85 90 89 85 73 70 57 40 53 44 38 39 57 63 67 72 61 54 46 48 41 38 35 25 29 32 32 34 39 38 42 38 40 37
29 30 37 12 16 20 27 51 50 48 50 57 68 72 68 86 89 93 80 60 55 48 43 53 50 36 51 58 65 73 70 54 48 44 42 30 27 29 30 31 31 31 37 43 44 39 40 36 35
31 35 29 20 22 40 15 37 36 36 36 47 57 72 72 77 77 65 58 58 58 55 49 49 50 40 55 59 61 61 65 51 44 38 33 32 30 30 34 31 31 36 40 41 36 33 33 29 26
37 25 23 32 25 30 7 39 48 39 50 37 40 57 72 77 81 78 60 60 61 51 41 45 49 48 50 51 52 54 61 55 47 37 35 32 32 34 31 32 39 38 39 27 21 19 20 22 23
38 27 22 26 22 29 28 12 60 21 35 35 36 63 78 76 63 63 61 70 50 38 41 46 42 40 42 42 41 44 44 41 35 30 33 37 37 39 36 38 39 35 23 17 15 15 16 19 21
16 20 33 34 8 16 25 26 44 30 36 21 24 44 57 74 67 52 54 49 43 43 44 40 36 40 38 37 38 39 39 37 35 36 35 31 30 31 31 36 34 22 14 10 10 11 11 14 18
13 2 7 7 11 31 25 19 42 23 15 21 31 47 73 69 56 43 37 46 54 53 46 40 43 45 42 45 45 40 42 37 27 33 32 29 25 23 26 27 20 16 10 7 6 5 6 9 10
13 19 10 13 9 16 28 21 18 32 50 72 60 67 60 62 52 44 51 59 55 50 45 46 49 54 51 47 45 41 38 25 33 29 23 19 21 20 19 14 13 11 10 10 8 6 6 7 10
9 19 14 10 28 3 14 17 16 38 49 45 38 29 25 34 46 56 59 57 53 47 45 51 53 54 51 49 44 40 32 27 28 24 19 16 16 12 12 9 8 7 6 8 6 9 10 10 10
12 8 7 8 15 12 12 12 22 16 20 20 21 21 37 46 57 58 56 52 46 42 46 54 54 55 50 44 39 34 25 22 18 14 15 13 11 15 9 8 6 5 5 7 6 7 10 7 5
6 5 6 8 7 19 6 12 10 25 23 34 15 45 63 64 67 64 56 49 45 48 56 56 55 51 45 37 31 25 24 15 11 7 11 15 16 12 12 8 2 2 6 8 7 13 12 11 12
8 12 10 4 13 9 8 32 24 33 19 38 24 49 55 67 69 63 58 54 55 56 54 52 51 46 39 35 31 26 20 11 10 11 10 14 17 15 10 3 3 9 15 10 10 13 18 20 13
Wind_Direction_500mb
266 254 191 189 76 75 250 255 248 289 14 340 351 87 120 87 153 204 155 153 162 163 171 179 186 186 187 184 179 175 171 168 164 157 151 137 109 91 71 45 359 267 263 248 230 237 260 273 274
205 180 181 194 107 171 256 233 243 357 341 9 1 61 47 31 119 146 160 165 164 169 178 183 187 189 192 192 189 186 184 185 182 180 177 153 62 22 12 8 348 270 248 250 253 254 259 268 275
192 176 173 159 188 205 211 214 199 85 60 77 356 359 80 125 124 152 150 162 177 183 187 189 192 194 197 199 198 197 197 195 195 198 200 195 248 341 343 335 326 295 260 259 262 266 277 283 274
175 173 252 223 236 263 229 268 235 232 60 133 74 327 164 159 155 156 154 173 186 202 193 205 207 205 203 204 205 205 205 203 204 206 211 214 225 280 319 317 305 289 274 263 268 270 275 278 272
168 158 211 246 256 254 259 273 275 220 175 177 158 213 146 171 160 155 164 181 191 207 219 223 225 217 210 211 211 212 211 210 211 212 217 223 234 252 284 305 300 288 275 271 280 266 255 255 259
180 245 141 240 253 265 270 297 256 171 199 243 204 202 158 161 156 154 176 192 204 230 236 235 230 229 219 219 219 218 216 216 217 218 220 225 235 248 259 286 297 288 279 276 283 275 267 264 262
162 113 226 266 269 295 307 315 324 172 180 235 141 138 160 172 192 224 216 216 219 217 228 235 238 237 225 226 228 225 222 221 223 225 225 228 233 243 252 267 287 286 277 282 289 281 279 272 266
203 113 249 238 233 270 351 331 334 344 328 94 120 154 178 191 220 227 214 218 224 220 229 227 230 232 234 227 232 232 229 227 226 230 231 232 236 241 250 259 277 276 270 281 290 307 300 270 269
198 145 235 227 205 249 39 360 300 305 329 328 226 220 185 209 244 215 211 218 224 238 237 233 234 232 236 236 230 234 234 232 230 232 233 234 237 242 249 258 271 268 276 279 310 328 315 281 274
185 193 228 230 233 284 308 268 280 301 316 300 314 235 327 318 312 200 203 212 225 238 252 237 235 233 239 246 229 234 232 232 232 233 234 236 237 241 248 255 267 263 270 274 279 304 318 309 298
210 226 214 254 259 268 273 288 253 274 278 272 270 294 309 289 297 301 287 281 268 269 265 258 249 233 238 246 237 236 233 234 234 236 237 239 238 238 243 252 256 254 259 270 275 283 288 293 305
264 240 232 248 262 267 260 270 277 267 262 277 280 284 289 294 283 289 281 277 264 259 265 260 264 247 237 239 242 241 238 238 237 239 238 238 239 238 239 248 256 259 258 265 269 266 275 268 287
251 254 247 250 251 255 264 265 264 276 281 283 286 288 291 294 291 297 297 288 265 264 266 256 264 255 245 240 240 243 242 240 239 242 240 241 241 241 241 248 250 260 260 256 265 263 261 265 274
270 288 266 260 252 257 259 265 266 267 274 279 280 284 286 291 288 290 291 283 282 277 265 260 258 253 255 248 248 255 245 242 242 242 239 241 244 245 242 245 252 253 253 254 263 272 273 267 265
262 282 279 259 252 256 256 262 253 256 267 270 274 278 282 284 285 286 286 278 274 275 283 268 247 254 259 258 261 246 249 242 243 240 233 234 237 234 228 236 244 247 251 259 265 266 271 265 263
244 249 247 250 245 248 264 265 252 255 266 277 280 281 279 280 284 283 282 272 271 274 273 252 236 251 249 256 259 260 251 243 244 241 236 229 227 222 222 238 249 256 251 257 259 262 259 262 262
209 239 238 250 227 237 205 261 245 258 259 266 271 273 273 276 280 280 281 276 268 266 260 235 245 257 249 257 265 257 248 239 241 239 233 229 229 214 219 240 257 266 258 260 267 270 266 272 266
215 222 236 255 216 227 238 263 264 265 267 269 272 271 270 272 270 277 279 272 255 258 253 248 245 254 255 257 254 243 237 235 233 228 225 230 213 204 232 243 259 272 257 263 275 280 280 276 263
274 263 252 253 200 214 242 255 264 255 256 258 264 268 264 265 266 274 278 275 247 249 259 240 241 255 256 249 235 229 225 214 212 211 209 197 217 234 234 245 271 274 274 280 280 284 281 271 253
248 267 268 307 297 230 245 257 260 262 262 255 258 259 259 267 275 277 277 257 237 246 251 240 247 255 250 238 231 221 211 202 203 206 221 231 251 222 240 263 273 277 280 284 286 278 269 264 247
244 236 260 268 305 291 304 284 272 265 264 265 268 274 273 273 275 278 275 241 242 244 250 249 242 247 237 229 220 212 209 209 207 213 229 246 229 241 253 257 267 270 283 284 277 269 261 259 245
250 251 253 245 255 261 203 280 265 270 268 267 254 259 268 275 277 276 260 234 237 242 235 235 233 223 219 218 211 205 200 205 211 221 231 225 228 239 246 262 269 274 284 278 275 268 254 241 234
251 251 245 230 238 247 243 275 269 225 250 250 253 252 261 269 278 277 269 253 241 225 227 215 213 212 205 200 199 194 196 198 197 196 197 219 226 227 244 259 275 276 275 267 269 263 249 242 230
286 232 235 258 242 244 218 220 277 246 247 243 247 257 271 278 278 277 273 259 211 205 200 204 201 185 179 178 178 181 181 183 189 201 200 210 218 230 252 267 269 258 257 265 269 265 254 244 236
232 241 232 239 202 234 178 220 239 267 238 242 251 254 258 265 275 277 249 197 189 187 185 181 182 169 165 166 171 175 183 190 189 193 198 205 224 252 263 261 243 238 259 252 243 227 209 209 203
186 182 192 197 193 243 258 234 247 236 253 260 254 263 272 278 274 201 183 176 174 172 168 170 173 162 162 169 169 175 181 177 185 194 208 236 258 255 254 211 217 238 241 238 248 275 237 217 219
310 219 206 283 275 356 233 283 298 270 272 266 262 261 239 200 176 172 170 168 164 165 165 167 168 161 164 165 171 177 180 189 204 212 220 235 246 212 182 201 214 224 254 257 278 253 264 229 226
202 293 167 201 213 236 259 257 234 263 263 270 248 175 169 164 161 162 162 161 159 163 160 160 164 162 162 166 173 174 180 184 186 215 230 217 186 152 155 167 199 231 277 285 268 236 229 218 222
308 224 221 168 197 221 288 248 234 256 268 274 233 174 163 163 160 160 158 157 156 157 155 157 163 165 165 169 168 161 153 172 191 166 173 182 161 140 140 127 141 230 351 315 239 233 219 202 243
236 248 149 195 255 265 229 256 266 290 304 293 172 163 160 158 160 158 157 155 154 154 154 158 162 164 162 160 155 154 170 184 191 166 182 190 169 168 164 188 348 342 329 310 213 222 225 227 244
Wind_Speed_850mb
5 6 11 6 4 6 5 11 8 12 12 25 32 15 14 6 11 8 42 42 40 39 40 38 39 35 28 25 24 23 21 18 15 12 9 7 6 5 4 3 2 3 6 6 6 6 6 9 13
10 12 8 2 6 3 9 9 17 6 5 31 26 15 18 4 28 29 46 43 32 30 37 40 39 34 31 28 26 25 24 21 17 12 9 5 2 4 5 5 4 3 5 7 8 9 10 12 15
15 16 1 5 7 10 8 7 5 7 18 22 21 28 5 15 28 46 30 35 36 21 32 34 37 35 35 33 31 30 29 27 22 17 11 6 1 4 7 9 7 6 8 10 13 14 14 15 13
19 8 6 3 16 13 8 21 10 8 14 11 14 10 7 23 40 35 35 33 31 21 22 28 34 39 40 39 38 36 35 32 29 23 18 13 7 5 7 10 9 10 11 11 13 15 18 22 21
19 6 3 7 12 12 20 28 41 10 9 13 39 26 12 39 36 38 37 36 26 21 22 25 37 42 44 44 44 43 42 39 35 31 26 20 15 12 9 11 12 13 14 14 14 19 25 28 29
7 5 2 10 16 16 14 28 49 13 17 23 11 10 13 38 29 17 25 27 28 22 23 31 36 47 48 47 49 49 49 45 41 38 33 28 23 19 14 13 16 18 16 16 19 23 25 30 33
10 5 8 7 10 14 6 27 13 17 24 5 26 15 25 39 15 15 13 16 23 31 35 40 43 45 56 51 52 55 53 50 46 45 40 35 31 27 22 17 19 20 16 14 16 20 23 27 31
11 6 5 8 7 16 7 37 29 23 20 19 20 11 21 42 21 19 18 24 29 35 42 51 53 55 58 61 58 59 59 57 54 52 48 43 39 34 29 23 23 22 17 14 12 13 19 24 27
28 3 11 13 12 18 14 21 50 27 26 45 7 8 28 21 17 35 32 38 42 48 45 53 56 63 62 67 64 65 65 63 61 59 56 52 49 42 35 29 27 23 19 12 11 15 17 17 20
17 13 18 17 14 13 28 6 35 53 40 33 46 8 6 27 13 29 41 36 34 28 32 46 57 65 65 72 71 70 72 74 72 71 66 64 56 47 39 33 30 24 17 18 17 14 14 12 14
15 28 24 32 33 37 39 41 37 40 29 45 35 43 48 33 39 47 41 44 42 41 36 39 42 60 67 73 78 75 76 80 80 79 74 70 60 53 45 38 34 27 20 24 26 22 18 16 18
21 39 42 47 53 47 35 54 45 47 53 52 55 61 61 57 54 55 59 55 53 45 49 49 45 43 56 71 78 81 80 75 79 83 81 74 67 59 48 42 39 31 26 26 26 26 22 21 22
42 34 43 48 63 65 62 54 50 67 73 73 75 77 68 55 47 45 53 54 56 51 49 55 58 54 46 61 71 81 82 73 71 76 79 75 70 61 49 44 39 34 33 33 30 30 26 28 29
12 12 39 48 60 62 43 54 61 68 77 79 71 67 72 73 70 76 73 66 59 65 58 61 58 51 41 46 54 62 80 76 67 62 65 65 60 57 52 41 35 38 40 35 32 35 36 35 33
43 21 31 46 34 29 56 54 55 74 68 74 73 76 74 79 85 92 92 78 73 59 59 66 57 43 40 43 48 64 73 80 71 59 52 49 41 41 41 35 37 41 40 40 38 40 43 43 43
4 8 37 40 38 27 21 64 47 51 47 61 67 76 88 94 103 99 92 79 75 75 67 45 54 42 44 48 52 55 70 78 72 60 50 45 40 38 35 35 36 35 44 46 42 43 42 44 51
13 33 41 49 22 9 26 84 25 53 62 51 58 71 78 85 92 95 89 85 85 66 47 53 50 46 44 48 54 57 63 78 68 55 46 43 41 40 33 37 29 32 44 46 43 43 44 44 46
24 43 36 34 14 29 37 67 43 61 68 72 80 88 85 86 91 100 91 82 74 57 57 64 55 36 39 51 56 62 68 66 57 49 44 43 40 41 32 33 31 34 36 38 40 43 45 45 40
21 23 30 8 20 28 41 44 40 43 56 44 58 63 78 85 90 89 85 73 70 57 40 53 44 38 39 57 63 67 72 61 54 46 48 41 38 35 25 29 32 32 34 39 38 42 38 40 37
29 30 37 12 16 20 27 51 50 48 50 57 68 72 68 86 89 93 80 60 55 48 43 53 50 36 51 58 65 73 70 54 48 44 42 30 27 29 30 31 31 31 37 43 44 39 40 36 35
31 35 29 20 22 40 15 37 36 36 36 47 57 72 72 77 77 65 58 58 58 55 49 49 50 40 55 59 61 61 65 51 44 38 33 32 30 30 34 31 31 36 40 41 36 33 33 29 26
37 25 23 32 25 30 7 39 48 39 50 37 40 57 72 77 81 78 60 60 61 51 41 45 49 48 50 51 52 54 61 55 47 37 35 32 32 34 31 32 39 38 39 27 21 19 20 22 23
38 27 22 26 22 29 28 12 60 21 35 35 36 63 78 76 63 63 61 70 50 38 41 46 42 40 42 42 41 44 44 41 35 30 33 37 37 39 36 38 39 35 23 17 15 15 16 19 21
16 20 33 34 8 16 25 26 44 30 36 21 24 44 57 74 67 52 54 49 43 43 44 40 36 40 38 37 38 39 39 37 35 36 35 31 30 31 31 36 34 22 14 10 10 11 11 14 18
13 2 7 7 11 31 25 19 42 23 15 21 31 47 73 69 56 43 37 46 54 53 46 40 43 45 42 45 45 40 42 37 27 33 32 29 25 23 26 27 20 16 10 7 6 5 6 9 10
13 19 10 13 9 16 28 21 18 32 50 72 60 67 60 62 52 44 51 59 55 50 45 46 49 54 51 47 45 41 38 25 33 29 23 19 21 20 19 14 13 11 10 10 8 6 6 7 10
9 19 14 10 28 3 14 17 16 38 49 45 38 29 25 34 46 56 59 57 53 47 45 51 53 54 51 49 44 40 32 27 28 24 19 16 16 12 12 9 8 7 6 8 6 9 10 10 10
12 8 7 8 15 12 12 12 22 16 20 20 21 21 37 46 57 58 56 52 46 42 46 54 54 55 50 44 39 34 25 22 18 14 15 13 11 15 9 8 6 5 5 7 6 7 10 7 5
6 5 6 8 7 19 6 12 10 25 23 34 15 45 63 64 67 64 56 49 45 48 56 56 55 51 45 37 31 25 24 15 11 7 11 15 16 12 12 8 2 2 6 8 7 13 12 11 12
8 12 10 4 13 9 8 32 24 33 19 38 24 49 55 67 69 63 58 54 55 56 54 52 51 46 39 35 31 26 20 11 10 11 10 14 17 15 10 3 3 9 15 10 10 13 18 20 13
Wind_Direction_850mb
266 254 191 189 76 75 250 255 248 289 14 340 351 87 120 87 153 204 155 153 162 163 171 179 186 186 187 184 179 175 171 168 164 157 151 137 109 91 71 45 359 267 263 248 230 237 260 273 274
205 180 181 194 107 171 256 233 243 357 341 9 1 61 47 31 119 146 160 165 164 169 178 183 187 189 192 192 189 186 184 185 182 180 177 153 62 22 12 8 348 270 248 250 253 254 259 268 275
192 176 173 159 188 205 211 214 199 85 60 77 356 359 80 125 124 152 150 162 177 183 187 189 192 194 197 199 198 197 197 195 195 198 200 195 248 341 343 335 326 295 260 259 262 266 277 283 274
175 173 252 223 236 263 229 268 235 232 60 133 74 327 164 159 155 156 154 173 186 202 193 205 207 205 203 204 205 205 205 203 204 206 211 214 225 280 319 317 305 289 274 263 268 270 275 278 272
168 158 211 246 256 254 259 273 275 220 175 177 158 213 146 171 160 155 164 181 191 207 219 223 225 217 210 211 211 212 211 210 211 212 217 223 234 252 284 305 300 288 275 271 280 266 255 255 259
180 245 141 240 253 265 270 297 256 171 199 243 204 202 158 161 156 154 176 192 204 230 236 235 230 229 219 219 219 218 216 216 217 218 220 225 235 248 259 286 297 288 279 276 283 275 267 264 262
162 113 226 266 269 295 307 315 324 172 180 235 141 138 160 172 192 224 216 216 219 217 228 235 238 237 225 226 228 225 222 221 223 225 225 228 233 243 252 267 287 286 277 282 289 281 279 272 266
203 113 249 238 233 270 351 331 334 344 328 94 120 154 178 191 220 227 214 218 224 220 229 227 230 232 234 227 232 232 229 227 226 230 231 232 236 241 250 259 277 276 270 281 290 307 300 270 269
198 145 235 227 205 249 39 360 300 305 329 328 226 220 185 209 244 215 211 218 224 238 237 233 234 232 236 236 230 234 234 232 230 232 233 234 237 242 249 258 271 268 276 279 310 328 315 281 274
185 193 228 230 233 284 308 268 280 301 316 300 314 235 327 318 312 200 203 212 225 238 252 237 235 233 239 246 229 234 232 232 232 233 234 236 237 241 248 255 267 263 270 274 279 304 318 309 298
210 226 214 254 259 268 273 288 253 274 278 272 270 294 309 289 297 301 287 281 268 269 265 258 249 233 238 246 237 236 233 234 234 236 237 239 238 238 243 252 256 254 259 270 275 283 288 293 305
264 240 232 248 262 267 260 270 277 267 262 277 280 284 289 294 283 289 281 277 264 259 265 260 264 247 237 239 242 241 238 238 237 239 238 238 239 238 239 248 256 259 258 265 269 266 275 268 287
251 254 247 250 251 255 264 265 264 276 281 283 286 288 291 294 291 297 297 288 265 264 266 256 264 255 245 240 240 243 242 240 239 242 240 241 241 241 241 248 250 260 260 256 265 263 261 265 274
270 288 266 260 252 257 259 265 266 267 274 279 280 284 286 291 288 290 291 283 282 277 265 260 258 253 255 248 248 255 245 242 242 242 239 241 244 245 242 245 252 253 253 254 263 272 273 267 265
262 282 279 259 252 256 256 262 253 256 267 270 274 278 282 284 285 286 286 278 274 275 283 268 247 254 259 258 261 246 249 242 243 240 233 234 237 234 228 236 244 247 251 259 265 266 271 265 263
244 249 247 250 245 248 264 265 252 255 266 277 280 281 279 280 284 283 282 272 271 274 273 252 236 251 249 256 259 260 251 243 244 241 236 229 227 222 222 238 249 256 251 257 259 262 259 262 262
209 239 238 250 227 237 205 261 245 258 259 266 271 273 273 276 280 280 281 276 268 266 260 235 245 257 249 257 265 257 248 239 241 239 233 229 229 214 219 240 257 266 258 260 267 270 266 272 266
215 222 236 255 216 227 238 263 264 265 267 269 272 271 270 272 270 277 279 272 255 258 253 248 245 254 255 257 254 243 237 235 233 228 225 230 213 204 232 243 259 272 257 263 275 280 280 276 263
274 263 252 253 200 214 242 255 264 255 256 258 264 268 264 265 266 274 278 275 247 249 259 240 241 255 256 249 235 229 225 214 212 211 209 197 217 234 234 245 271 274 274 280 280 284 281 271 253
248 267 268 307 297 230 245 257 260 262 262 255 258 259 259 267 275 277 277 257 237 246 251 240 247 255 250 238 231 221 211 202 203 206 221 231 251 222 240 263 273 277 280 284 286 278 269 264 247
244 236 260 268 305 291 304 284 272 265 264 265 268 274 273 273 275 278 275 241 242 244 250 249 242 247 237 229 220 212 209 209 207 213 229 246 229 241 253 257 267 270 283 284 277 269 261 259 245
250 251 253 245 255 261 203 280 265 270 268 267 254 259 268 275 277 276 260 234 237 242 235 235 233 223 219 218 211 205 200 205 211 221 231 225 228 239 246 262 269 274 284 278 275 268 254 241 234
251 251 245 230 238 247 243 275 269 225 250 250 253 252 261 269 278 277 269 253 241 225 227 215 213 212 205 200 199 194 196 198 197 196 197 219 226 227 244 259 275 276 275 267 269 263 249 242 230
286 232 235 258 242 244 218 220 277 246 247 243 247 257 271 278 278 277 273 259 211 205 200 204 201 185 179 178 178 181 181 183 189 201 200 210 218 230 252 267 269 258 257 265 269 265 254 244 236
232 241 232 239 202 234 178 220 239 267 238 242 251 254 258 265 275 277 249 197 189 187 185 181 182 169 165 166 171 175 183 190 189 193 198 205 224 252 263 261 243 238 259 252 243 227 209 209 203
186 182 192 197 193 243 258 234 247 236 253 260 254 263 272 278 274 201 183 176 174 172 168 170 173 162 162 169 169 175 181 177 185 194 208 236 258 255 254 211 217 238 241 238 248 275 237 217 219
310 219 206 283 275 356 233 283 298 270 272 266 262 261 239 200 176 172 170 168 164 165 165 167 168 161 164 165 171 177 180 189 204 212 220 235 246 212 182 201 214 224 254 257 278 253 264 229 226
202 293 167 201 213 236 259 257 234 263 263 270 248 175 169 164 161 162 162 161 159 163 160 160 164 162 162 166 173 174 180 184 186 215 230 217 186 152 155 167 199 231 277 285 268 236 229 218 222
308 224 221 168 197 221 288 248 234 256 268 274 233 174 163 163 160 160 158 157 156 157 155 157 163 165 165 169 168 161 153 172 191 166 173 182 161 140 140 127 141 230 351 315 239 233 219 202 243
236 248 149 195 255 265 229 256 266 290 304 293 172 163 160 158 160 158 157 155 154 154 154 158 162 164 162 160 155 154 170 184 191 166 182 190 169 168 164 188 348 342 329 310 213 222 225 227 244